| time (UTC) | temp C | wind direction | speed KPH | gust KPH | rain 1hr cm | rain 24hr cm | rain mn cm | humidity % | barometer mb |
| 20260906044531 | 6 | 196 | 0.0 | 0.0 | 0.00 | 0.00 | 0.00 | 95 | 1006.9 |
| 20260906043033 | 5 | 196 | 0.0 | 0.0 | 0.00 | 0.00 | 0.00 | 95 | 1006.8 |
| 20260906041529 | 5 | 196 | 0.0 | 0.0 | 0.00 | 0.00 | 0.00 | 94 | 1006.8 |
| 20260906040027 | 5 | 196 | 0.0 | 0.0 | 0.00 | 0.00 | 0.00 | 94 | 1006.6 |
| 20260906034546 | 5 | 196 | 0.0 | 0.0 | 0.00 | 0.00 | 0.00 | 94 | 1006.5 |
| 20260906033023 | 6 | 196 | 0.0 | 0.0 | 0.00 | 0.00 | 0.00 | 94 | 1006.5 |
| 20260906031528 | 6 | 196 | 0.0 | 0.0 | 0.00 | 0.00 | 0.00 | 94 | 1006.5 |
| 20260906030020 | 6 | 196 | 0.0 | 0.0 | 0.00 | 0.00 | 0.00 | 94 | 1006.3 |
| 20260906024518 | 6 | 196 | 0.0 | 0.0 | 0.00 | 0.00 | 0.00 | 94 | 1006.2 |
| 20260906023017 | 6 | 196 | 0.0 | 0.0 | 0.00 | 0.00 | 0.00 | 94 | 1006.3 |
| 20260906021516 | 6 | 196 | 0.0 | 0.0 | 0.00 | 0.00 | 0.00 | 94 | 1006.1 |
| 20260906020013 | 6 | 196 | 0.0 | 0.0 | 0.00 | 0.00 | 0.00 | 94 | 1006.0 |
| 20260906014513 | 6 | 196 | 0.0 | 0.0 | 0.00 | 0.00 | 0.00 | 94 | 1005.9 |
| 20260906013011 | 6 | 196 | 0.0 | 0.0 | 0.00 | 0.00 | 0.00 | 94 | 1005.8 |
| 20260906011509 | 6 | 196 | 0.0 | 0.0 | 0.00 | 0.00 | 0.00 | 94 | 1005.7 |
| 20260906010009 | 6 | 196 | 0.0 | 0.0 | 0.00 | 0.00 | 0.00 | 94 | 1005.6 |
| 20260906004506 | 6 | 196 | 0.0 | 0.0 | 0.00 | 0.00 | 0.00 | 93 | 1005.5 |
| 20260906003005 | 6 | 197 | 0.0 | 0.0 | 0.00 | 0.00 | 0.00 | 93 | 1005.4 |
| 20260906001502 | 6 | 197 | 0.0 | 0.0 | 0.00 | 0.00 | 0.00 | 93 | 1005.3 |
| 20260906000100 | 7 | 197 | 0.0 | 0.0 | 0.00 | 0.00 | 0.00 | 93 | 1005.2 |
| 20260905234557 | 7 | 197 | 0.0 | 0.0 | 0.00 | 0.00 | 0.00 | 93 | 1005.1 |
| 20260905233057 | 7 | 197 | 0.0 | 0.0 | 0.00 | 0.00 | 0.00 | 93 | 1004.9 |
| 20260905231556 | 7 | 197 | 0.0 | 0.0 | 0.00 | 0.00 | 0.00 | 93 | 1005.0 |
| 20260905230054 | 7 | 197 | 0.0 | 0.0 | 0.00 | 0.00 | 0.00 | 93 | 1004.8 |
| 20260905224552 | 7 | 197 | 0.0 | 0.0 | 0.00 | 0.00 | 0.00 | 92 | 1004.6 |
| 20260905223055 | 7 | 197 | 0.0 | 0.0 | 0.00 | 0.00 | 0.00 | 92 | 1004.7 |
| 20260905221548 | 7 | 197 | 0.0 | 0.0 | 0.00 | 0.00 | 0.00 | 92 | 1004.7 |
| 20260905220046 | 7 | 197 | 0.0 | 0.0 | 0.00 | 0.00 | 0.00 | 92 | 1004.4 |
| 20260905214547 | 7 | 197 | 0.0 | 0.0 | 0.00 | 0.00 | 0.00 | 92 | 1004.2 |
| 20260905213042 | 7 | 197 | 0.0 | 0.0 | 0.00 | 0.00 | 0.00 | 91 | 1004.2 |
| 20260905211539 | 8 | 197 | 0.0 | 0.0 | 0.00 | 0.00 | 0.00 | 91 | 1003.9 |
| 20260905210050 | 8 | 197 | 0.0 | 0.0 | 0.00 | 0.00 | 0.00 | 90 | 1003.7 |
| 20260905204535 | 8 | 197 | 0.0 | 0.0 | 0.00 | 0.00 | 0.00 | 90 | 1003.5 |
| 20260905203032 | 8 | 197 | 0.0 | 0.0 | 0.00 | 0.00 | 0.00 | 89 | 1003.4 |
| 20260905201531 | 9 | 197 | 0.0 | 0.0 | 0.00 | 0.00 | 0.00 | 89 | 1003.4 |
| 20260905200032 | 10 | 197 | 0.0 | 0.0 | 0.00 | 0.00 | 0.00 | 88 | 1003.2 |
| 20260905194521 | 10 | 197 | 0.0 | 0.0 | 0.00 | 0.00 | 0.00 | 88 | 1003.0 |
| 20260905193021 | 11 | 197 | 0.0 | 0.0 | 0.00 | 0.00 | 0.00 | 88 | 1003.0 |
| 20260905191520 | 11 | 197 | 0.0 | 0.0 | 0.00 | 0.00 | 0.00 | 87 | 1002.9 |
| 20260905190015 | 11 | 197 | 0.0 | 0.0 | 0.00 | 0.00 | 0.00 | 87 | 1002.6 |
| 20260905184526 | 12 | 198 | 0.0 | 0.0 | 0.00 | 0.00 | 0.00 | 86 | 1002.6 |
| 20260905183012 | 12 | 198 | 0.0 | 0.0 | 0.00 | 0.00 | 0.00 | 85 | 1002.5 |
| 20260905181510 | 12 | 198 | 0.0 | 0.0 | 0.00 | 0.00 | 0.00 | 83 | 1002.2 |
| 20260905180010 | 13 | 199 | 0.0 | 0.0 | 0.00 | 0.00 | 0.00 | 81 | 1002.1 |
| 20260905174508 | 13 | 198 | 1.6 | 0.0 | 0.00 | 0.00 | 0.00 | 80 | 1001.9 |
| 20260905173010 | 14 | 194 | 3.2 | 0.0 | 0.00 | 0.00 | 0.00 | 78 | 1001.9 |
| 20260905171507 | 15 | 192 | 1.6 | 0.0 | 0.00 | 0.00 | 0.00 | 77 | 1001.7 |
| 20260905170005 | 15 | 202 | 1.6 | 0.0 | 0.00 | 0.00 | 0.00 | 74 | 1001.6 |
| 20260905164502 | 16 | 207 | 1.6 | 0.0 | 0.00 | 0.00 | 0.00 | 70 | 1001.4 |
| 20260905163001 | 16 | 143 | 0.0 | 0.0 | 0.00 | 0.00 | 0.00 | 70 | 1001.3 |
| 20260905161600 | 16 | 143 | 0.0 | 0.0 | 0.00 | 0.00 | 0.00 | 64 | 1001.0 |
| 20260905160059 | 16 | 144 | 0.0 | 0.0 | 0.00 | 0.00 | 0.00 | 63 | 1001.2 |
| 20260905154603 | 17 | 144 | 0.0 | 0.0 | 0.00 | 0.00 | 0.00 | 61 | 1000.9 |
| 20260905153056 | 17 | 196 | 0.0 | 0.0 | 0.00 | 0.00 | 0.00 | 63 | 1000.8 |
| 20260905151604 | 17 | 197 | 0.0 | 0.0 | 0.00 | 0.00 | 0.00 | 67 | 1000.6 |
| 20260905150054 | 16 | 198 | 3.2 | 0.0 | 0.00 | 0.00 | 0.00 | 70 | 1000.6 |
| 20260905144554 | 16 | 192 | 3.2 | 0.0 | 0.00 | 0.00 | 0.00 | 69 | 1000.6 |
| 20260905143053 | 16 | 215 | 0.0 | 0.0 | 0.00 | 0.00 | 0.00 | 69 | 1000.4 |
| 20260905141551 | 16 | 229 | 1.6 | 0.0 | 0.00 | 0.00 | 0.00 | 70 | 1000.3 |
| 20260905140050 | 16 | 206 | 3.2 | 0.0 | 0.00 | 0.00 | 0.00 | 68 | 1000.2 |
| 20260905134549 | 16 | 221 | 1.6 | 0.0 | 0.00 | 0.00 | 0.00 | 69 | 1000.1 |
| 20260905133047 | 16 | 223 | 1.6 | 0.0 | 0.00 | 0.00 | 0.00 | 69 | 1000.0 |
| 20260905131555 | 18 | 202 | 3.2 | 0.0 | 0.00 | 0.00 | 0.00 | 64 | 999.9 |
| 20260905130044 | 17 | 210 | 1.6 | 0.0 | 0.00 | 0.00 | 0.00 | 66 | 999.9 |
| 20260905124542 | 16 | 207 | 1.6 | 0.0 | 0.00 | 0.00 | 0.00 | 67 | 999.7 |
| 20260905123101 | 16 | 240 | 3.2 | 0.0 | 0.00 | 0.00 | 0.00 | 67 | 999.8 |
| 20260905121538 | 16 | 240 | 3.2 | 0.0 | 0.00 | 0.00 | 0.00 | 66 | 999.8 |
| 20260905120037 | 17 | 281 | 3.2 | 0.0 | 0.00 | 0.00 | 0.00 | 63 | 999.5 |
| 20260905114538 | 17 | 206 | 3.2 | 0.0 | 0.00 | 0.00 | 0.00 | 61 | 999.7 |
| 20260905113034 | 17 | 242 | 0.0 | 0.0 | 0.00 | 0.00 | 0.00 | 57 | 999.4 |
| 20260905111530 | 18 | 128 | 0.0 | 0.0 | 0.00 | 0.00 | 0.00 | 54 | 999.3 |
| 20260905110026 | 17 | 132 | 1.6 | 0.0 | 0.00 | 0.00 | 0.00 | 58 | 999.2 |
| 20260905104523 | 17 | 115 | 1.6 | 0.0 | 0.00 | 0.00 | 0.00 | 59 | 999.1 |
| 20260905103024 | 16 | 154 | 1.6 | 0.0 | 0.00 | 0.00 | 0.00 | 62 | 999.1 |
| 20260905101518 | 16 | 72 | 4.8 | 0.0 | 0.00 | 0.00 | 0.00 | 60 | 998.9 |
| 20260905100014 | 16 | 82 | 4.8 | 0.0 | 0.00 | 0.00 | 0.00 | 63 | 998.8 |
| 20260905094514 | 16 | 102 | 4.8 | 0.0 | 0.00 | 0.00 | 0.00 | 64 | 998.8 |
| 20260905093011 | 15 | 101 | 4.8 | 0.0 | 0.00 | 0.00 | 0.00 | 64 | 998.9 |
| 20260905091508 | 15 | 138 | 8.0 | 0.0 | 0.00 | 0.00 | 0.00 | 64 | 998.8 |
| 20260905090007 | 15 | 136 | 8.0 | 0.0 | 0.00 | 0.00 | 0.00 | 65 | 998.7 |
| 20260905084506 | 15 | 76 | 6.4 | 0.0 | 0.00 | 0.00 | 0.00 | 65 | 998.7 |
| 20260905083002 | 15 | 101 | 6.4 | 0.0 | 0.00 | 0.00 | 0.00 | 67 | 998.7 |
| 20260905081559 | 14 | 78 | 6.4 | 0.0 | 0.00 | 0.00 | 0.00 | 68 | 998.5 |
| 20260905080135 | 13 | 121 | 8.0 | 0.0 | 0.00 | 0.00 | 0.00 | 70 | 998.5 |
| 20260905074555 | 13 | 128 | 8.0 | 0.0 | 0.00 | 0.00 | 0.00 | 70 | 998.5 |
| 20260905073053 | 13 | 88 | 6.4 | 0.0 | 0.00 | 0.00 | 0.00 | 72 | 998.4 |
| 20260905071551 | 13 | 68 | 8.0 | 0.0 | 0.00 | 0.00 | 0.00 | 73 | 998.4 |
| 20260905070055 | 13 | 117 | 8.0 | 0.0 | 0.00 | 0.00 | 0.00 | 74 | 998.2 |
| 20260905064558 | 13 | 125 | 4.8 | 0.0 | 0.00 | 0.00 | 0.00 | 76 | 998.2 |
| 20260905063049 | 13 | 80 | 6.4 | 0.0 | 0.00 | 0.00 | 0.00 | 74 | 998.2 |
| 20260905061555 | 13 | 80 | 6.4 | 0.0 | 0.00 | 0.00 | 0.00 | 74 | 997.9 |
| 20260905060056 | 12 | 96 | 8.0 | 0.0 | 0.00 | 0.00 | 0.00 | 75 | 997.9 |
| 20260905054553 | 12 | 81 | 4.8 | 0.0 | 0.00 | 0.00 | 0.00 | 75 | 997.9 |
| 20260905053053 | 12 | 78 | 6.4 | 0.0 | 0.00 | 0.00 | 0.00 | 75 | 997.7 |
| 20260905051553 | 12 | 77 | 4.8 | 0.0 | 0.00 | 0.00 | 0.00 | 75 | 997.7 |
| 20260905050044 | 12 | 82 | 4.8 | 0.0 | 0.00 | 0.00 | 0.00 | 76 | 997.8 |